• In Netherlands
  • List of Countries
  • For 7 days
  • Water Temperature
  • Satellite Maps
  • Weather Map
  • Weather Widgets
  • user-avatar
    Login

    Hourly Weather Santiago del Estero

    Today, 28 April, Friday

    Time Temperature Precipitation Wind Pressure Humidity
    00:00 +15°C° 0 mm 4 mps 745 mmHg 54%
    01:00 +14°C° 0 mm 4 mps 745 mmHg 54%
    02:00 +14°C° 0 mm 4 mps 745 mmHg 55%
    03:00 +13°C° 0 mm 4 mps 745 mmHg 55%
    04:00 +13°C° 0 mm 4 mps 745 mmHg 55%
    05:00 +12°C° 0 mm 4 mps 745 mmHg 55%
    06:00 +13°C° 0 mm 4 mps 746 mmHg 54%
    07:00 +14°C° 0 mm 5 mps 746 mmHg 52%
    08:00 +14°C° 0 mm 5 mps 747 mmHg 50%
    09:00 +17°C° 0 mm 6 mps 747 mmHg 44%
    10:00 +20°C° 0 mm 6 mps 747 mmHg 38%
    11:00 +23°C° 0 mm 7 mps 748 mmHg 32%
    12:00 +24°C° 0 mm 6 mps 747 mmHg 30%
    13:00 +26°C° 0 mm 6 mps 747 mmHg 28%
    14:00 +28°C° 0 mm 6 mps 746 mmHg 26%
    15:00 +27°C° 0 mm 5 mps 746 mmHg 29%
    16:00 +26°C° 0 mm 4 mps 746 mmHg 31%
    17:00 +25°C° 0 mm 4 mps 746 mmHg 33%
    18:00 +22°C° 0 mm 3 mps 746 mmHg 37%
    19:00 +20°C° 0 mm 3 mps 747 mmHg 41%
    20:00 +18°C° 0 mm 3 mps 747 mmHg 46%
    21:00 +18°C° 0 mm 3 mps 747 mmHg 48%
    22:00 +17°C° 0 mm 3 mps 747 mmHg 51%
    23:00 +16°C° 0 mm 3 mps 748 mmHg 54%

    Tomorrow, 29 April, Saturday

    Time Temperature Precipitation Wind Pressure Humidity
    00:00 +16°C° 0 mm 3 mps 747 mmHg 56%
    01:00 +14°C° 0 mm 3 mps 747 mmHg 58%
    02:00 +14°C° 0 mm 3 mps 747 mmHg 60%
    03:00 +13°C° 0 mm 3 mps 747 mmHg 61%
    04:00 +13°C° 0 mm 3 mps 746 mmHg 63%
    05:00 +13°C° 0 mm 3 mps 746 mmHg 64%
    06:00 +13°C° 0 mm 3 mps 747 mmHg 62%
    07:00 +14°C° 0 mm 4 mps 747 mmHg 59%
    08:00 +15°C° 0 mm 4 mps 747 mmHg 57%
    09:00 +18°C° 0 mm 4 mps 748 mmHg 49%
    10:00 +21°C° 0 mm 5 mps 748 mmHg 42%
    11:00 +25°C° 0 mm 5 mps 748 mmHg 35%
    12:00 +26°C° 0 mm 5 mps 747 mmHg 33%
    13:00 +28°C° 0 mm 6 mps 747 mmHg 30%
    14:00 +29°C° 0 mm 6 mps 746 mmHg 28%
    15:00 +28°C° 0 mm 5 mps 746 mmHg 31%
    16:00 +27°C° 0 mm 4 mps 746 mmHg 33%
    17:00 +26°C° 0 mm 4 mps 746 mmHg 36%
    18:00 +23°C° 0 mm 4 mps 746 mmHg 39%
    19:00 +21°C° 0 mm 4 mps 747 mmHg 43%
    20:00 +19°C° 0 mm 3 mps 747 mmHg 46%
    21:00 +19°C° 0 mm 3 mps 748 mmHg 48%
    22:00 +18°C° 0 mm 3 mps 748 mmHg 50%
    23:00 +17°C° 0 mm 3 mps 748 mmHg 52%

    Day after tomorrow, 30 April, Sunday

    Time Temperature Precipitation Wind Pressure Humidity
    00:00 +17°C° 0 mm 3 mps 748 mmHg 55%
    01:00 +16°C° 0 mm 3 mps 747 mmHg 57%
    02:00 +16°C° 0 mm 3 mps 747 mmHg 59%
    03:00 +14°C° 0 mm 3 mps 747 mmHg 61%
    04:00 +14°C° 0 mm 3 mps 747 mmHg 63%
    05:00 +14°C° 0 mm 3 mps 747 mmHg 64%
    06:00 +14°C° 0 mm 3 mps 747 mmHg 63%
    07:00 +16°C° 0 mm 3 mps 747 mmHg 61%
    08:00 +16°C° 0 mm 3 mps 748 mmHg 59%
    09:00 +19°C° 0 mm 4 mps 748 mmHg 52%
    10:00 +22°C° 0 mm 4 mps 748 mmHg 44%
    11:00 +25°C° 0 mm 4 mps 748 mmHg 37%
    12:00 +27°C° 0 mm 5 mps 747 mmHg 34%
    13:00 +28°C° 0 mm 5 mps 746 mmHg 32%
    14:00 +29°C° 0 mm 5 mps 746 mmHg 29%
    15:00 +28°C° 0 mm 4 mps 745 mmHg 31%
    16:00 +27°C° 0 mm 4 mps 745 mmHg 33%
    17:00 +26°C° 0 mm 4 mps 745 mmHg 35%
    18:00 +23°C° 0 mm 4 mps 745 mmHg 39%
    19:00 +21°C° 0 mm 4 mps 745 mmHg 44%
    20:00 +19°C° 0 mm 4 mps 746 mmHg 48%
    21:00 +19°C° 0 mm 3 mps 746 mmHg 52%
    22:00 +18°C° 0 mm 3 mps 746 mmHg 56%
    23:00 +17°C° 0 mm 3 mps 746 mmHg 60%

    1 May, Monday

    Time Temperature Precipitation Wind Pressure Humidity
    00:00 +17°C° 0 mm 3 mps 746 mmHg 62%
    01:00 +16°C° 0 mm 3 mps 745 mmHg 65%
    02:00 +16°C° 0 mm 3 mps 745 mmHg 67%
    03:00 +16°C° 0 mm 3 mps 745 mmHg 70%
    04:00 +14°C° 0 mm 3 mps 745 mmHg 72%
    05:00 +14°C° 0 mm 3 mps 745 mmHg 75%
    06:00 +16°C° 0 mm 3 mps 745 mmHg 73%
    07:00 +16°C° 0 mm 3 mps 745 mmHg 71%
    08:00 +17°C° 0 mm 4 mps 746 mmHg 69%
    09:00 +20°C° 0 mm 4 mps 746 mmHg 61%
    10:00 +22°C° 0 mm 5 mps 746 mmHg 53%
    11:00 +26°C° 0 mm 6 mps 746 mmHg 45%
    12:00 +27°C° 0 mm 6 mps 745 mmHg 42%
    13:00 +28°C° 0 mm 6 mps 744 mmHg 39%
    14:00 +29°C° 0 mm 6 mps 743 mmHg 36%
    15:00 +29°C° 0 mm 5 mps 743 mmHg 39%
    16:00 +28°C° 0 mm 4 mps 743 mmHg 41%
    17:00 +27°C° 0 mm 4 mps 742 mmHg 43%
    18:00 +25°C° 0 mm 4 mps 743 mmHg 49%
    19:00 +24°C° 0 mm 3 mps 743 mmHg 55%
    20:00 +21°C° 0 mm 3 mps 744 mmHg 61%
    21:00 +20°C° 0 mm 3 mps 744 mmHg 64%
    22:00 +20°C° 0 mm 3 mps 744 mmHg 67%
    23:00 +19°C° 0 mm 3 mps 743 mmHg 71%

    2 May, Tuesday

    Time Temperature Precipitation Wind Pressure Humidity
    00:00 +19°C° 0 mm 3 mps 743 mmHg 73%
    01:00 +18°C° 0 mm 3 mps 743 mmHg 76%
    02:00 +18°C° 0 mm 3 mps 742 mmHg 78%
    03:00 +17°C° 0 mm 3 mps 742 mmHg 80%
    04:00 +17°C° 0 mm 3 mps 742 mmHg 83%
    05:00 +17°C° 0 mm 3 mps 742 mmHg 85%
    06:00 +18°C° 0 mm 4 mps 742 mmHg 82%
    07:00 +17°C° 0 mm 5 mps 742 mmHg 79%
    08:00 +19°C° 0 mm 5 mps 742 mmHg 76%
    09:00 +22°C° 0 mm 6 mps 742 mmHg 68%
    10:00 +24°C° 0 mm 7 mps 742 mmHg 60%
    11:00 +28°C° 0 mm 7 mps 742 mmHg 52%
    12:00 +29°C° 0 mm 7 mps 741 mmHg 50%
    13:00 +30°C° 0 mm 7 mps 741 mmHg 47%
    14:00 +32°C° 0 mm 6 mps 740 mmHg 45%
    15:00 +30°C° 0 mm 5 mps 740 mmHg 47%
    16:00 +30°C° 0 mm 5 mps 740 mmHg 49%
    17:00 +29°C° 0 mm 4 mps 740 mmHg 51%
    18:00 +28°C° 0 mm 3 mps 741 mmHg 55%
    19:00 +27°C° 0 mm 3 mps 741 mmHg 59%
    20:00 +25°C° 0 mm 3 mps 742 mmHg 63%
    21:00 +25°C° 0 mm 3 mps 742 mmHg 64%
    22:00 +25°C° 0 mm 3 mps 743 mmHg 66%
    23:00 +25°C° 0 mm 3 mps 743 mmHg 67%

    3 May, Wednesday

    Time Temperature Precipitation Wind Pressure Humidity
    00:00 +25°C° 0.1 mm 3 mps 743 mmHg 72%
    01:00 +24°C° 0.1 mm 2 mps 743 mmHg 77%
    02:00 +23°C° 0.1 mm 2 mps 743 mmHg 83%
    03:00 +23°C° 0.3 mm 2 mps 743 mmHg 87%
    04:00 +22°C° 0.3 mm 1 mps 743 mmHg 91%
    05:00 +21°C° 0.3 mm 1 mps 743 mmHg 95%
    06:00 +21°C° 0.6 mm 1 mps 744 mmHg 93%
    07:00 +22°C° 0.6 mm 1 mps 744 mmHg 91%
    08:00 +23°C° 0.6 mm 1 mps 745 mmHg 90%
    09:00 +24°C° 1.1 mm 1 mps 745 mmHg 82%
    10:00 +26°C° 1.1 mm 1 mps 745 mmHg 75%
    11:00 +27°C° 1.1 mm 1 mps 745 mmHg 68%
    12:00 +28°C° 0.1 mm 2 mps 744 mmHg 62%
    13:00 +29°C° 0.1 mm 2 mps 743 mmHg 56%
    14:00 +30°C° 0.1 mm 2 mps 742 mmHg 50%
    15:00 +30°C° 0 mm 2 mps 742 mmHg 52%
    16:00 +29°C° 0 mm 2 mps 742 mmHg 54%
    17:00 +29°C° 0 mm 2 mps 741 mmHg 56%
    18:00 +27°C° 0 mm 2 mps 741 mmHg 61%
    19:00 +26°C° 0 mm 2 mps 742 mmHg 67%
    20:00 +24°C° 0 mm 2 mps 742 mmHg 73%
    21:00 +24°C° 0 mm 2 mps 742 mmHg 76%
    22:00 +22°C° 0 mm 3 mps 741 mmHg 79%
    23:00 +22°C° 0 mm 3 mps 741 mmHg 82%
    Show more